INTELSAT 33E (IS-33E)

Last updated on Nov. 15, 2019, 4:20 a.m. UTC

1 41748U 16053B   19318.06517517  .00000063  00000-0  00000+0 0  9991
2 41748   0.0465  78.4357 0002627 158.2424 259.7022  1.00271369 12085
UTC
Height (km)
Latitude
Longitude
Inclination
Orbital Period
UTC large
Height (km)
Speed (km/s)
/
Latitude / Longitude
Inclination (degrees)
Orbital Period (minutes)
Azimuth
Elevation
Range (km)
Doppler Factor
iOS Compass Heading
iOS Angle

Next 30 passes for location: Hong Kong

Rise time Rise Azimuth (degrees) Set time Set Azimuth (degrees) Duration Max altitude (degrees)

No matching passes for this satellites